[[{"header":{"parameterUnit":"m.s-1","parameterCategory":1,"la1":30.2992,"la2":30.254,"lo1":-89.0895,"lo2":-89.0443,"dy":0.0025,"dx":0.0025,"nx":19,"ny":19,"refTime":"2026-04-13T09:00:00:Z","depth":0,"parameterNumber":2,"parameterNumberName":"U-component_of_WINDS"},"data":[0,0,0,-3.3001,-3.3003,-3.3092,-3.3092,-3.3221,-3.3223,0,0,0,0,0,0,0,0,0,0,0,-3.2982,-3.2983,-3.3001,-3.3003,-3.3092,-3.3092,-3.3221,-3.3223,0,0,0,0,0,0,0,0,0,0,0,-3.2982,-3.2983,-3.2984,-3.3003,-3.3092,-3.3092,-3.3221,-3.3149,0,0,0,0,0,0,0,0,0,0,-3.306,-3.3049,-3.2983,-3.2984,-3.3004,-3.3092,-3.3092,-3.3145,-3.3153,-3.3187,0,-3.3218,0,-3.3222,-3.3232,-3.3233,0,0,0,-3.2998,-3.3043,-3.306,-3.2985,-3.3005,-3.3092,-3.305,-3.3149,-3.3159,-3.3198,-3.322,-3.3224,-3.3225,-3.3233,-3.3234,-3.3446,-3.3447,0,0,-3.2993,-3.3002,-3.3053,-3.3066,-3.3052,-3.3047,-3.3053,-3.3155,-3.3179,-3.322,-3.3227,-3.3227,-3.3234,-3.3235,-3.3445,-3.3446,0,0,0,-3.2982,-3.2999,-3.3013,-3.3061,-3.3076,-3.305,-3.3057,-3.3175,-3.3179,-3.3228,-3.3228,-3.3235,-3.3236,-3.3443,-3.3445,-3.3515,0,0,0,-3.2979,-3.2993,-3.3012,-3.3019,-3.3074,-3.3126,-3.3075,-3.3172,-3.3183,-3.3228,-3.3235,-3.3238,-3.3442,-3.3444,-3.351,-3.3546,0,0,0,-3.2974,-3.2992,-3.3008,-3.3019,-3.3057,-3.3124,-3.3134,-3.3174,-3.3183,-3.3233,-3.3238,-3.3441,-3.3444,-3.3506,-3.3539,-3.3604,0,0,0,-3.2971,-3.3069,-3.3009,-3.3119,-3.3057,-3.3167,-3.3133,-3.3215,-3.3266,-3.3235,-3.3442,-3.3445,-3.3504,-3.3534,-3.3599,-3.366,-3.3686,0,0,-3.31,-3.3085,-3.3149,-3.3098,-3.3221,-3.3153,-3.3287,-3.3325,-3.3322,-3.3405,-3.341,-3.3512,-3.3538,-3.3603,-3.3833,-3.3854,0,0,0,-3.3193,-3.3238,-3.3269,-3.3318,-3.3349,-3.3379,-3.3396,-3.341,-3.3481,-3.3366,-3.3553,-3.3569,-3.3607,-3.3635,-3.3653,-3.3685,-3.3459,-3.3458,-3.3458,-3.3387,-3.3378,-3.3483,-3.3485,-3.3533,-3.355,-3.3588,-3.3611,-3.3588,-3.3633,-3.3656,-3.3797,-3.383,-3.3844,-3.3877,-3.3689,-3.3689,-3.3689,-3.369,-3.3574,-3.3637,-3.3605,-3.3695,-3.3686,-3.3762,-3.3784,-3.3765,-3.3836,-3.3777,-3.381,-3.3746,-3.3867,-3.3895,-3.3695,-3.3694,-3.3693,-3.3693,-3.3692,-3.3699,-3.3728,-3.3744,-3.3814,-3.3871,-3.387,-3.394,-3.3929,-3.392,-3.3952,-3.3977,-3.3975,-3.3972,-3.3965,-3.3966,-3.3966,-3.3967,-3.3967,-3.3967,-3.3821,-3.3838,-3.3897,-3.394,-3.3971,-3.401,-3.4031,-3.4061,-3.4092,-3.4079,-3.4079,-3.4052,-3.3881,-3.3837,-3.3975,-3.3973,-3.3972,-3.3972,-3.3971,-3.4011,-3.3967,-3.4058,-3.4089,-3.414,-3.4197,-3.4184,-3.4248,-3.4272,-3.4307,-3.4274,-3.4149,-3.4133,-3.4119,-3.4082,-3.4275,-3.4275,-3.4275,-3.4275,-3.4116,-3.4107,-3.4198,-3.4249,-3.4297,-3.4295,-3.44,-3.4419,-3.4431,-3.4446,-3.4417,-3.4369,-3.4355,-3.4347,-3.4328,-3.4294,-3.4536,-3.4536,-3.4536,-3.4232,-3.4228,-3.4318,-3.4328,-3.4368,-3.4403,-3.4502,-3.4563,-3.4568,-3.4547,-3.4457,-3.4446,-3.4368,-3.4344,-3.4317,-3.4288,-3.4225,0,0]},{"header":{"parameterUnit":"m.s-1","parameterCategory":1,"la1":30.2992,"la2":30.254,"lo1":-89.0895,"lo2":-89.0443,"dy":0.0025,"dx":0.0025,"nx":19,"ny":19,"refTime":"2026-04-13T09:00:00:Z","depth":0,"parameterNumber":3,"parameterNumberName":"V-component_of_WINDS"},"data":[0,0,0,3.0922,3.0922,3.0925,3.0925,3.0931,3.0931,0,0,0,0,0,0,0,0,0,0,0,3.0923,3.0924,3.0922,3.0922,3.0925,3.0925,3.0931,3.0931,0,0,0,0,0,0,0,0,0,0,0,3.0923,3.0924,3.0924,3.0922,3.0925,3.0925,3.0931,3.0928,0,0,0,0,0,0,0,0,0,0,3.0925,3.0928,3.0923,3.0924,3.0922,3.0925,3.0925,3.0927,3.0928,3.0931,0,3.0935,0,3.0933,3.0931,3.0931,0,0,0,3.092,3.0928,3.0927,3.0924,3.0922,3.0925,3.0923,3.0928,3.0928,3.0931,3.0935,3.0935,3.0933,3.0931,3.0931,3.0958,3.0958,0,0,3.092,3.0925,3.0926,3.0927,3.0928,3.0923,3.0923,3.0928,3.0931,3.0935,3.0935,3.0933,3.0931,3.0932,3.0958,3.0958,0,0,0,3.0921,3.0925,3.0923,3.0927,3.0927,3.0923,3.0923,3.0931,3.093,3.0935,3.0933,3.0932,3.0932,3.0958,3.0958,3.0974,0,0,0,3.0921,3.0925,3.0923,3.0926,3.0927,3.0929,3.0927,3.093,3.093,3.0933,3.0932,3.0932,3.0957,3.0958,3.0973,3.098,0,0,0,3.0922,3.0925,3.0927,3.0927,3.0928,3.0929,3.0929,3.093,3.0929,3.0931,3.0932,3.0957,3.0958,3.0972,3.0978,3.0989,0,0,0,3.0925,3.0939,3.0927,3.0942,3.0928,3.0939,3.0928,3.0936,3.094,3.0932,3.0957,3.0958,3.0971,3.0977,3.0988,3.0998,3.1003,0,0,3.0946,3.0942,3.0951,3.094,3.0954,3.0938,3.0955,3.0953,3.0949,3.0955,3.0956,3.0973,3.0978,3.0988,3.1028,3.1032,0,0,0,3.0959,3.0965,3.0968,3.0972,3.0972,3.0972,3.0968,3.0967,3.0973,3.0953,3.0979,3.0982,3.0988,3.0993,3.0996,3.1001,3.096,3.096,3.096,3.0993,3.0988,3.1002,3.0997,3.1002,3.0998,3.1001,3.0999,3.0991,3.0998,3.1,3.1025,3.103,3.1033,3.1038,3.1005,3.1005,3.1005,3.1005,3.1022,3.1031,3.1022,3.1032,3.1027,3.1035,3.1032,3.1027,3.1034,3.1022,3.1027,3.1015,3.1037,3.1041,3.1006,3.1006,3.1006,3.1006,3.1006,3.1044,3.1047,3.1048,3.1054,3.106,3.1055,3.1062,3.1057,3.1051,3.1056,3.1057,3.1057,3.1056,3.1057,3.1057,3.1057,3.1057,3.1058,3.1058,3.1067,3.1067,3.1074,3.1077,3.1079,3.1082,3.108,3.1082,3.1083,3.1078,3.1078,3.107,3.104,3.1033,3.1059,3.1059,3.1058,3.1058,3.1058,3.1098,3.109,3.1102,3.1105,3.1108,3.1114,3.1108,3.1113,3.1114,3.1118,3.111,3.1089,3.1084,3.1082,3.1076,3.1111,3.1111,3.1111,3.1111,3.1116,3.1114,3.1125,3.113,3.1135,3.113,3.1144,3.1143,3.114,3.114,3.1134,3.1126,3.1123,3.112,3.1117,3.1111,3.1154,3.1154,3.1154,3.1135,3.1133,3.1146,3.1144,3.1146,3.1149,3.1161,3.1167,3.1162,3.1156,3.114,3.1139,3.1125,3.1121,3.1113,3.1108,3.1097,0,0]}]]